sat.trackr.live / text

‹ back to catalog

STARLINK-31337

NORAD 58934 · 2024-027D

PAYLOAD ACTIVE UNKNOWN

§ Identity

Operator
Country
US
Launch date
2024-02-10
Launch site
AFWTR
Launch vehicle
Mass (kg)
RCS (m²)

Purposes: comms

External: N2YO · Heavens-Above · Gunter

§ Orbital elements

Epoch: 2026-09-20T21:40:28.268544Z

Period
93.85 min
Inclination
53.1601°
Eccentricity
0.0001132
Mean motion
15.34401544 rev/d
Perigee alt
461.9 km
Apogee alt
463.5 km
Semi-major
6,840.8 km
B*
2.2262e-5
RAAN
121.6579°
Arg perigee
93.3685°
Mean anomaly
266.7448°
Rev number
14,723

§ Raw data

STARLINK-313371 58934U 24027D   26263.90310496  .00000376  00000+0  22262-4 0  99982 58934  53.1601 121.6579 0001132  93.3685 266.7448 15.34401544147234

JSON: /api/v1/satellites/58934 · /tle

For live sub-satellite position, see the globe view (requires WebGL).

§ Visibility from observer

Set your observer location to see the next 7 days of passes ≥ 10°. The values pass through the URL so the page stays shareable.

No JS? Fill the form by hand. The geolocation button needs JavaScript.